Time,TemperatureF,DewpointF,PressureIn,WindDirection,WindDirectionDegrees,WindSpeedMPH,WindSpeedGustMPH,Humidity,HourlyPrecipIn,Conditions,Clouds,dailyrainin,SoftwareType,DateUTC
2013-07-30 00:03:00,54.3,52.9,30.06,SE,126,0.0,0.0,95,0.00,,---,0.00,VWS V14.01,2013-07-30 05:03:00,
2013-07-30 00:08:00,54.2,52.8,30.06,SE,125,0.0,0.0,95,0.00,,---,0.00,VWS V14.01,2013-07-30 05:08:00,
2013-07-30 00:13:00,53.8,52.1,30.06,SE,125,0.0,0.0,94,0.00,,---,0.00,VWS V14.01,2013-07-30 05:13:00,
2013-07-30 00:18:00,53.6,51.9,30.05,SE,125,0.0,0.0,94,0.00,,---,0.00,VWS V14.01,2013-07-30 05:18:00,
2013-07-30 00:23:00,53.5,52.1,30.05,SE,126,0.0,0.0,95,0.00,,---,0.00,VWS V14.01,2013-07-30 05:23:00,
2013-07-30 00:29:00,53.4,52.0,30.05,SE,125,0.0,0.0,95,0.00,,---,0.00,VWS V14.01,2013-07-30 05:29:00,
2013-07-30 00:34:00,53.2,51.8,30.06,SE,125,0.0,0.0,95,0.00,,---,0.00,VWS V14.01,2013-07-30 05:34:00,
2013-07-30 00:39:00,53.2,51.8,30.06,SE,125,0.0,0.0,95,0.00,,---,0.00,VWS V14.01,2013-07-30 05:39:00,
2013-07-30 00:45:00,53.0,51.6,30.06,SE,126,0.0,0.0,95,0.00,,---,0.00,VWS V14.01,2013-07-30 05:45:00,
2013-07-30 00:50:00,52.8,51.4,30.06,SE,125,0.0,1.0,95,0.00,,---,0.00,VWS V14.01,2013-07-30 05:50:00,
2013-07-30 00:55:00,52.6,51.2,30.06,SE,126,0.0,1.0,95,0.00,,---,0.00,VWS V14.01,2013-07-30 05:55:00,
2013-07-30 01:00:00,52.8,51.7,30.05,SE,125,0.0,1.0,96,0.00,,---,0.00,VWS V14.01,2013-07-30 06:00:00,
2013-07-30 01:05:00,53.0,51.9,30.05,SE,126,0.0,0.0,96,0.00,,---,0.00,VWS V14.01,2013-07-30 06:05:00,
2013-07-30 01:10:00,52.9,51.8,30.05,SE,126,0.0,0.0,96,0.00,,---,0.00,VWS V14.01,2013-07-30 06:10:00,
2013-07-30 01:16:00,52.9,51.8,30.06,SE,125,0.0,0.0,96,0.00,,---,0.00,VWS V14.01,2013-07-30 06:16:00,
2013-07-30 01:21:00,52.8,51.7,30.06,SE,125,0.0,0.0,96,0.00,,---,0.00,VWS V14.01,2013-07-30 06:21:00,
2013-07-30 01:26:00,52.6,51.5,30.06,SE,126,0.0,0.0,96,0.00,,---,0.00,VWS V14.01,2013-07-30 06:26:00,
2013-07-30 01:32:00,52.7,51.6,30.06,SE,125,0.0,0.0,96,0.00,,---,0.00,VWS V14.01,2013-07-30 06:32:00,
2013-07-30 01:37:00,52.7,51.6,30.06,SE,125,0.0,0.0,96,0.00,,---,0.00,VWS V14.01,2013-07-30 06:37:00,
2013-07-30 01:43:00,52.7,51.3,30.06,SE,126,0.0,0.0,95,0.00,,---,0.00,VWS V14.01,2013-07-30 06:43:00,
2013-07-30 01:48:00,52.6,51.2,30.05,SE,125,0.0,0.0,95,0.00,,---,0.00,VWS V14.01,2013-07-30 06:48:00,
2013-07-30 01:53:00,53.0,51.9,30.05,SE,125,0.0,0.0,96,0.00,,---,0.00,VWS V14.01,2013-07-30 06:53:00,
2013-07-30 01:58:00,53.2,52.1,30.05,SE,125,0.0,0.0,96,0.00,,---,0.00,VWS V14.01,2013-07-30 06:58:00,
2013-07-30 02:03:00,53.2,52.1,30.05,SE,126,0.0,0.0,96,0.00,,---,0.00,VWS V14.01,2013-07-30 07:03:00,
2013-07-30 02:09:00,53.4,52.3,30.05,SE,125,0.0,0.0,96,0.00,,---,0.00,VWS V14.01,2013-07-30 07:09:00,
2013-07-30 02:14:00,53.5,52.4,30.05,SE,125,0.0,0.0,96,0.00,,---,0.00,VWS V14.01,2013-07-30 07:14:00,
2013-07-30 02:19:00,53.6,52.5,30.05,SE,125,0.0,0.0,96,0.00,,---,0.00,VWS V14.01,2013-07-30 07:19:00,
2013-07-30 02:24:00,53.8,52.7,30.05,SE,125,0.0,0.0,96,0.00,,---,0.00,VWS V14.01,2013-07-30 07:24:00,
2013-07-30 02:29:00,53.9,52.8,30.05,SE,126,0.0,0.0,96,0.00,,---,0.00,VWS V14.01,2013-07-30 07:29:00,
2013-07-30 02:34:00,54.0,52.9,30.05,SE,125,0.0,0.0,96,0.00,,---,0.00,VWS V14.01,2013-07-30 07:34:00,
2013-07-30 02:39:00,54.1,53.0,30.05,SE,125,0.0,0.0,96,0.00,,---,0.00,VWS V14.01,2013-07-30 07:39:00,
2013-07-30 02:45:00,54.1,52.7,30.05,SE,125,0.0,0.0,95,0.00,,---,0.00,VWS V14.01,2013-07-30 07:45:00,
2013-07-30 02:50:00,54.0,52.6,30.05,SE,125,0.0,0.0,95,0.00,,---,0.00,VWS V14.01,2013-07-30 07:50:00,
2013-07-30 02:55:00,53.9,52.5,30.05,SE,126,0.0,0.0,95,0.00,,---,0.00,VWS V14.01,2013-07-30 07:55:00,
2013-07-30 03:00:00,53.8,52.4,30.04,SE,125,0.0,0.0,95,0.00,,---,0.00,VWS V14.01,2013-07-30 08:00:00,
2013-07-30 03:05:00,53.8,52.4,30.04,SE,125,0.0,0.0,95,0.00,,---,0.00,VWS V14.01,2013-07-30 08:05:00,
2013-07-30 03:11:00,54.0,52.9,30.04,SE,126,0.0,0.0,96,0.00,,---,0.00,VWS V14.01,2013-07-30 08:11:00,
2013-07-30 03:16:00,54.1,53.0,30.04,SE,126,0.0,0.0,96,0.00,,---,0.00,VWS V14.01,2013-07-30 08:16:00,
2013-07-30 03:21:00,54.1,52.7,30.04,SE,125,0.0,0.0,95,0.00,,---,0.00,VWS V14.01,2013-07-30 08:21:00,
2013-07-30 03:26:00,54.1,53.0,30.04,SE,126,0.0,0.0,96,0.00,,---,0.00,VWS V14.01,2013-07-30 08:26:00,
2013-07-30 03:31:00,54.1,52.7,30.05,SE,126,0.0,0.0,95,0.00,,---,0.00,VWS V14.01,2013-07-30 08:31:00,
2013-07-30 03:37:00,54.1,53.0,30.05,SE,126,0.0,0.0,96,0.00,,---,0.00,VWS V14.01,2013-07-30 08:37:00,
2013-07-30 03:42:00,54.2,53.1,30.05,SE,125,0.0,0.0,96,0.00,,---,0.00,VWS V14.01,2013-07-30 08:42:00,
2013-07-30 03:48:00,54.4,53.3,30.05,SE,125,0.0,0.0,96,0.00,,---,0.00,VWS V14.01,2013-07-30 08:48:00,
2013-07-30 03:53:00,54.6,53.5,30.05,SE,125,0.0,0.0,96,0.00,,---,0.00,VWS V14.01,2013-07-30 08:53:00,
2013-07-30 03:58:00,54.7,53.6,30.05,SE,126,0.0,0.0,96,0.00,,---,0.00,VWS V14.01,2013-07-30 08:58:00,
2013-07-30 04:03:00,54.9,54.1,30.04,SE,126,0.0,0.0,97,0.00,,---,0.00,VWS V14.01,2013-07-30 09:03:00,
2013-07-30 04:08:00,55.1,54.3,30.04,SE,125,0.0,0.0,97,0.00,,---,0.00,VWS V14.01,2013-07-30 09:08:00,
2013-07-30 04:13:00,55.2,54.4,30.04,SE,125,0.0,0.0,97,0.00,,---,0.00,VWS V14.01,2013-07-30 09:13:00,
2013-07-30 04:18:00,55.3,54.5,30.04,SE,126,0.0,0.0,97,0.00,,---,0.00,VWS V14.01,2013-07-30 09:18:00,
2013-07-30 04:23:00,55.4,54.6,30.04,SE,126,0.0,0.0,97,0.00,,---,0.00,VWS V14.01,2013-07-30 09:23:00,
2013-07-30 04:29:00,55.5,54.7,30.04,SE,125,0.0,0.0,97,0.00,,---,0.00,VWS V14.01,2013-07-30 09:29:00,
2013-07-30 04:34:00,55.5,54.7,30.05,SE,125,0.0,0.0,97,0.00,,---,0.00,VWS V14.01,2013-07-30 09:34:00,
2013-07-30 04:39:00,55.5,54.7,30.05,SE,126,0.0,0.0,97,0.00,,---,0.00,VWS V14.01,2013-07-30 09:39:00,
2013-07-30 04:44:00,55.4,54.6,30.05,SE,125,0.0,0.0,97,0.00,,---,0.00,VWS V14.01,2013-07-30 09:44:00,
2013-07-30 04:49:00,55.5,55.0,30.05,SE,125,0.0,0.0,98,0.00,,---,0.00,VWS V14.01,2013-07-30 09:49:00,
2013-07-30 04:54:00,55.6,55.0,30.05,SE,126,0.0,0.0,98,0.00,,---,0.00,VWS V14.01,2013-07-30 09:54:00,
2013-07-30 05:00:00,55.8,55.2,30.06,SE,126,0.0,0.0,98,0.00,,---,0.00,VWS V14.01,2013-07-30 10:00:00,
2013-07-30 05:05:00,55.7,55.2,30.06,SE,126,0.0,0.0,98,0.00,,---,0.00,VWS V14.01,2013-07-30 10:05:00,
2013-07-30 05:10:00,55.8,55.2,30.06,SE,125,0.0,0.0,98,0.00,,---,0.00,VWS V14.01,2013-07-30 10:10:00,
2013-07-30 05:15:00,55.9,55.3,30.06,SE,125,0.0,0.0,98,0.00,,---,0.00,VWS V14.01,2013-07-30 10:15:00,
2013-07-30 05:21:00,56.0,55.5,30.06,SE,126,0.0,0.0,98,0.00,,---,0.00,VWS V14.01,2013-07-30 10:21:00,
2013-07-30 05:26:00,56.0,55.5,30.06,SE,125,0.0,0.0,98,0.00,,---,0.00,VWS V14.01,2013-07-30 10:26:00,
2013-07-30 05:31:00,56.1,55.5,30.06,SE,125,0.0,0.0,98,0.00,,---,0.00,VWS V14.01,2013-07-30 10:31:00,
2013-07-30 05:36:00,56.1,55.5,30.06,SE,125,0.0,0.0,98,0.00,,---,0.00,VWS V14.01,2013-07-30 10:36:00,
2013-07-30 05:41:00,56.2,55.7,30.06,SE,126,0.0,0.0,98,0.00,,---,0.00,VWS V14.01,2013-07-30 10:41:00,
2013-07-30 05:46:00,56.1,55.5,30.06,SE,125,0.0,0.0,98,0.00,,---,0.00,VWS V14.01,2013-07-30 10:46:00,
2013-07-30 05:51:00,56.2,55.7,30.06,SE,125,0.0,0.0,98,0.00,,---,0.00,VWS V14.01,2013-07-30 10:51:00,
2013-07-30 05:56:00,56.3,55.8,30.06,SE,125,0.0,0.0,98,0.00,,---,0.00,VWS V14.01,2013-07-30 10:56:00,
2013-07-30 06:02:00,56.3,55.8,30.06,SE,126,0.0,0.0,98,0.00,,---,0.00,VWS V14.01,2013-07-30 11:02:00,
2013-07-30 06:07:00,56.3,55.8,30.06,SE,125,0.0,0.0,98,0.00,,---,0.00,VWS V14.01,2013-07-30 11:07:00,
2013-07-30 06:08:00,56.3,55.8,30.06,SE,125,0.0,0.0,98,0.00,,---,0.00,VWS V14.01,2013-07-30 11:08:00,
2013-07-30 06:13:00,56.4,55.8,30.06,SE,125,0.0,0.0,98,0.00,,---,0.00,VWS V14.01,2013-07-30 11:13:00,
2013-07-30 06:18:00,56.5,55.9,30.07,SE,125,0.0,0.0,98,0.00,,---,0.00,VWS V14.01,2013-07-30 11:18:00,
2013-07-30 06:23:00,56.5,55.9,30.07,SE,125,0.0,0.0,98,0.00,,---,0.00,VWS V14.01,2013-07-30 11:23:00,
2013-07-30 06:29:00,56.5,55.9,30.07,SE,125,0.0,0.0,98,0.00,,---,0.00,VWS V14.01,2013-07-30 11:29:00,
2013-07-30 06:34:00,56.5,55.9,30.07,SE,125,0.0,0.0,98,0.00,,---,0.00,VWS V14.01,2013-07-30 11:34:00,
2013-07-30 06:39:00,56.5,55.9,30.07,SE,125,0.0,0.0,98,0.00,,---,0.00,VWS V14.01,2013-07-30 11:39:00,
2013-07-30 06:44:00,56.6,56.0,30.07,SE,125,0.0,0.0,98,0.00,,---,0.00,VWS V14.01,2013-07-30 11:44:00,
2013-07-30 06:49:00,56.7,56.1,30.08,SE,125,0.0,0.0,98,0.00,,---,0.00,VWS V14.01,2013-07-30 11:49:00,
2013-07-30 06:54:00,56.7,56.1,30.08,SE,125,0.0,0.0,98,0.00,,---,0.00,VWS V14.01,2013-07-30 11:54:00,
2013-07-30 06:59:00,56.8,56.2,30.08,SE,125,0.0,0.0,98,0.00,,---,0.00,VWS V14.01,2013-07-30 11:59:00,
2013-07-30 07:04:00,56.8,56.2,30.07,SE,125,0.0,0.0,98,0.00,,---,0.00,VWS V14.01,2013-07-30 12:04:00,
2013-07-30 07:09:00,56.9,56.3,30.07,SE,125,0.0,0.0,98,0.00,,---,0.00,VWS V14.01,2013-07-30 12:09:00,
2013-07-30 07:14:00,57.0,56.7,30.07,SE,125,0.0,0.0,99,0.00,,---,0.00,VWS V14.01,2013-07-30 12:14:00,
2013-07-30 07:19:00,57.1,56.8,30.07,SE,126,0.0,0.0,99,0.00,,---,0.00,VWS V14.01,2013-07-30 12:19:00,
2013-07-30 07:24:00,57.1,56.8,30.07,SE,125,0.0,0.0,99,0.00,,---,0.00,VWS V14.01,2013-07-30 12:24:00,
2013-07-30 07:29:00,57.1,56.8,30.07,SE,125,0.0,0.0,99,0.00,,---,0.00,VWS V14.01,2013-07-30 12:29:00,
2013-07-30 07:35:00,57.1,56.8,30.07,SE,125,0.0,0.0,99,0.00,,---,0.00,VWS V14.01,2013-07-30 12:35:00,
2013-07-30 07:40:00,57.1,56.8,30.07,SE,125,0.0,0.0,99,0.00,,---,0.00,VWS V14.01,2013-07-30 12:40:00,
2013-07-30 07:45:00,57.1,56.8,30.07,SE,125,0.0,0.0,99,0.00,,---,0.00,VWS V14.01,2013-07-30 12:45:00,
2013-07-30 07:50:00,57.2,56.9,30.07,SE,125,0.0,0.0,99,0.00,,---,0.00,VWS V14.01,2013-07-30 12:50:00,
2013-07-30 07:55:00,57.2,56.9,30.07,SE,125,0.0,0.0,99,0.00,,---,0.00,VWS V14.01,2013-07-30 12:55:00,
2013-07-30 08:01:00,57.3,57.0,30.07,SE,125,0.0,0.0,99,0.00,,---,0.00,VWS V14.01,2013-07-30 13:01:00,
2013-07-30 08:06:00,57.4,57.1,30.07,SE,126,0.0,0.0,99,0.00,,---,0.00,VWS V14.01,2013-07-30 13:06:00,
2013-07-30 08:11:00,57.4,57.1,30.07,SE,126,0.0,0.0,99,0.00,,---,0.00,VWS V14.01,2013-07-30 13:11:00,
2013-07-30 08:16:00,57.4,57.1,30.07,SE,125,0.0,0.0,99,0.00,,---,0.00,VWS V14.01,2013-07-30 13:16:00,
2013-07-30 08:21:00,57.5,57.2,30.07,SE,125,0.0,0.0,99,0.00,,---,0.00,VWS V14.01,2013-07-30 13:21:00,
2013-07-30 08:26:00,57.6,57.3,30.07,SE,125,0.0,0.0,99,0.00,,---,0.00,VWS V14.01,2013-07-30 13:26:00,
2013-07-30 08:31:00,57.8,57.5,30.07,SE,125,0.0,0.0,99,0.00,,---,0.00,VWS V14.01,2013-07-30 13:31:00,
2013-07-30 08:36:00,57.9,57.6,30.07,SE,125,0.0,0.0,99,0.00,,---,0.00,VWS V14.01,2013-07-30 13:36:00,
2013-07-30 08:41:00,57.9,57.6,30.07,SE,125,0.0,0.0,99,0.00,,---,0.00,VWS V14.01,2013-07-30 13:41:00,
2013-07-30 08:46:00,58.0,57.7,30.08,SE,125,0.0,3.0,99,0.00,,---,0.00,VWS V14.01,2013-07-30 13:46:00,
2013-07-30 08:52:00,58.1,57.8,30.08,SE,125,0.0,3.0,99,0.00,,---,0.00,VWS V14.01,2013-07-30 13:52:00,
2013-07-30 08:57:00,58.1,57.8,30.08,SE,125,0.0,3.0,99,0.00,,---,0.00,VWS V14.01,2013-07-30 13:57:00,
2013-07-30 09:02:00,58.2,57.9,30.07,SE,126,0.0,0.0,99,0.00,,---,0.00,VWS V14.01,2013-07-30 14:02:00,
2013-07-30 09:07:00,58.2,57.9,30.07,SE,126,0.0,0.0,99,0.00,,---,0.00,VWS V14.01,2013-07-30 14:07:00,
2013-07-30 09:13:00,58.4,58.1,30.07,SE,125,0.0,0.0,99,0.00,,---,0.00,VWS V14.01,2013-07-30 14:13:00,
2013-07-30 09:18:00,58.5,58.2,30.07,SE,125,0.0,0.0,99,0.00,,---,0.00,VWS V14.01,2013-07-30 14:18:00,
2013-07-30 09:23:00,58.7,58.4,30.07,SE,125,0.0,0.0,99,0.00,,---,0.00,VWS V14.01,2013-07-30 14:23:00,
2013-07-30 09:28:00,58.9,58.6,30.07,SE,125,0.0,0.0,99,0.00,,---,0.00,VWS V14.01,2013-07-30 14:28:00,
2013-07-30 09:33:00,59.1,58.8,30.07,SE,126,0.0,0.0,99,0.00,,---,0.00,VWS V14.01,2013-07-30 14:33:00,
2013-07-30 09:38:00,59.2,58.9,30.07,SE,125,0.0,0.0,99,0.00,,---,0.00,VWS V14.01,2013-07-30 14:38:00,
2013-07-30 09:43:00,59.1,58.8,30.07,SE,125,0.0,0.0,99,0.00,,---,0.00,VWS V14.01,2013-07-30 14:43:00,
2013-07-30 09:48:00,59.3,59.0,30.07,SE,125,0.0,0.0,99,0.00,,---,0.00,VWS V14.01,2013-07-30 14:48:00,
2013-07-30 09:53:00,59.5,59.2,30.07,SE,126,0.0,0.0,99,0.00,,---,0.00,VWS V14.01,2013-07-30 14:53:00,
2013-07-30 09:58:00,59.5,59.2,30.07,SE,126,0.0,0.0,99,0.00,,---,0.00,VWS V14.01,2013-07-30 14:58:00,
2013-07-30 10:03:00,59.6,59.3,30.07,SE,125,0.0,0.0,99,0.00,,---,0.00,VWS V14.01,2013-07-30 15:03:00,
2013-07-30 10:09:00,59.7,59.4,30.07,SE,126,0.0,0.0,99,0.00,,---,0.00,VWS V14.01,2013-07-30 15:09:00,
2013-07-30 10:14:00,59.7,59.4,30.07,SE,125,0.0,0.0,99,0.00,,---,0.00,VWS V14.01,2013-07-30 15:14:00,
2013-07-30 10:19:00,59.6,59.3,30.07,SE,125,0.0,0.0,99,0.00,,---,0.00,VWS V14.01,2013-07-30 15:19:00,
2013-07-30 10:24:00,59.9,59.6,30.07,SE,125,0.0,0.0,99,0.00,,---,0.00,VWS V14.01,2013-07-30 15:24:00,
2013-07-30 10:30:00,60.4,60.1,30.07,North,0,0.0,0.0,99,0.00,,---,0.00,VWS V14.01,2013-07-30 15:30:00,
2013-07-30 11:00:00,61.7,61.1,30.06,North,0,0.0,0.0,98,0.00,,---,0.00,VWS V14.01,2013-07-30 16:00:00,
2013-07-30 11:30:00,62.8,61.0,30.06,North,0,0.0,0.0,94,0.00,,---,0.00,VWS V14.01,2013-07-30 16:30:00,
2013-07-30 12:16:00,62.5,61.3,30.05,SSW,213,1.0,1.0,96,0.00,,---,0.00,VWS V14.01,2013-07-30 17:16:00,
2013-07-30 12:22:00,62.6,61.2,30.05,SSE,153,0.0,2.0,95,0.00,,---,0.00,VWS V14.01,2013-07-30 17:22:00,
2013-07-30 12:27:00,62.9,61.5,30.05,WNW,287,1.0,2.0,95,0.00,,---,0.00,VWS V14.01,2013-07-30 17:27:00,
2013-07-30 12:32:00,63.3,61.8,30.05,West,261,0.0,1.0,95,0.00,,---,0.00,VWS V14.01,2013-07-30 17:32:00,
2013-07-30 12:37:00,63.5,61.4,30.05,SSE,164,1.0,2.0,93,0.00,,---,0.00,VWS V14.01,2013-07-30 17:37:00,
2013-07-30 12:42:00,63.9,61.5,30.05,West,261,0.0,3.0,92,0.00,,---,0.00,VWS V14.01,2013-07-30 17:42:00,
2013-07-30 12:47:00,64.4,61.7,30.05,ESE,121,4.0,4.0,91,0.00,,---,0.00,VWS V14.01,2013-07-30 17:47:00,
2013-07-30 12:52:00,65.1,62.1,30.05,West,271,0.0,4.0,90,0.00,,---,0.00,VWS V14.01,2013-07-30 17:52:00,
2013-07-30 12:57:00,65.3,61.3,30.05,West,264,0.0,4.0,87,0.00,,---,0.00,VWS V14.01,2013-07-30 17:57:00,
2013-07-30 13:03:00,65.5,61.2,30.04,SSE,163,1.0,2.0,86,0.00,,---,0.00,VWS V14.01,2013-07-30 18:03:00,
2013-07-30 13:08:00,65.5,61.9,30.04,SSW,211,0.0,3.0,88,0.00,,---,0.00,VWS V14.01,2013-07-30 18:08:00,
2013-07-30 13:13:00,65.8,61.8,30.04,SSE,157,1.0,3.0,87,0.00,,---,0.00,VWS V14.01,2013-07-30 18:13:00,
2013-07-30 13:18:00,66.4,62.1,30.04,South,190,0.0,3.0,86,0.00,,---,0.00,VWS V14.01,2013-07-30 18:18:00,
2013-07-30 13:24:00,66.7,62.7,30.04,SE,130,1.0,3.0,87,0.00,,---,0.00,VWS V14.01,2013-07-30 18:24:00,
2013-07-30 13:29:00,67.1,62.1,30.03,West,281,2.0,3.0,84,0.00,,---,0.00,VWS V14.01,2013-07-30 18:29:00,
2013-07-30 13:34:00,67.5,62.2,30.03,WSW,242,1.0,2.0,83,0.00,,---,0.00,VWS V14.01,2013-07-30 18:34:00,
2013-07-30 13:40:00,68.4,61.6,30.03,SSW,206,2.0,3.0,79,0.00,,---,0.00,VWS V14.01,2013-07-30 18:40:00,
2013-07-30 13:45:00,69.1,63.0,30.03,WSW,256,0.0,4.0,81,0.00,,---,0.00,VWS V14.01,2013-07-30 18:45:00,
2013-07-30 13:50:00,69.9,61.6,30.03,WSW,237,0.0,4.0,75,0.00,,---,0.00,VWS V14.01,2013-07-30 18:50:00,
2013-07-30 13:55:00,70.1,62.2,30.03,West,263,1.0,4.0,76,0.00,,---,0.00,VWS V14.01,2013-07-30 18:55:00,
2013-07-30 14:00:00,69.6,62.1,30.02,SSW,203,1.0,4.0,77,0.00,,---,0.00,VWS V14.01,2013-07-30 19:00:00,
2013-07-30 14:05:00,70.6,61.1,30.02,WSW,255,2.0,4.0,72,0.00,,---,0.00,VWS V14.01,2013-07-30 19:05:00,
2013-07-30 14:10:00,70.6,60.8,30.02,West,271,1.0,4.0,71,0.00,,---,0.00,VWS V14.01,2013-07-30 19:10:00,
2013-07-30 14:15:00,70.9,59.8,30.02,SW,236,2.0,6.0,68,0.00,,---,0.00,VWS V14.01,2013-07-30 19:15:00,
2013-07-30 14:20:00,70.5,60.7,30.02,WSW,253,2.0,6.0,71,0.00,,---,0.00,VWS V14.01,2013-07-30 19:20:00,
2013-07-30 14:25:00,70.1,60.3,30.02,SSE,155,0.0,6.0,71,0.00,,---,0.00,VWS V14.01,2013-07-30 19:25:00,
2013-07-30 14:31:00,70.0,60.2,30.02,WSW,241,0.0,2.0,71,0.00,,---,0.00,VWS V14.01,2013-07-30 19:31:00,
2013-07-30 14:36:00,70.5,61.4,30.02,WSW,244,2.0,3.0,73,0.00,,---,0.00,VWS V14.01,2013-07-30 19:36:00,
2013-07-30 14:42:00,70.8,60.5,30.02,West,261,1.0,6.0,70,0.00,,---,0.00,VWS V14.01,2013-07-30 19:42:00,
2013-07-30 14:47:00,70.5,60.3,30.01,WSW,253,1.0,8.0,70,0.00,,---,0.00,VWS V14.01,2013-07-30 19:47:00,
2013-07-30 14:52:00,70.1,60.3,30.01,WSW,255,0.0,8.0,71,0.00,,---,0.00,VWS V14.01,2013-07-30 19:52:00,
2013-07-30 14:57:00,69.7,59.9,30.01,SW,226,0.0,8.0,71,0.00,,---,0.00,VWS V14.01,2013-07-30 19:57:00,
2013-07-30 15:03:00,69.5,60.1,30.01,SE,134,2.0,4.0,72,0.00,,---,0.00,VWS V14.01,2013-07-30 20:03:00,
2013-07-30 15:08:00,69.6,60.2,30.01,SSE,155,1.0,4.0,72,0.00,,---,0.00,VWS V14.01,2013-07-30 20:08:00,
2013-07-30 15:13:00,69.6,60.6,30.01,SSW,192,0.0,4.0,73,0.00,,---,0.00,VWS V14.01,2013-07-30 20:13:00,
2013-07-30 15:18:00,68.9,60.3,30.01,SSE,148,2.0,4.0,74,0.00,,---,0.00,VWS V14.01,2013-07-30 20:18:00,
2013-07-30 15:23:00,68.5,59.9,30.01,WNW,283,0.0,4.0,74,0.00,,---,0.00,VWS V14.01,2013-07-30 20:23:00,
2013-07-30 15:28:00,68.6,60.7,30.01,WSW,241,0.0,4.0,76,0.00,,---,0.00,VWS V14.01,2013-07-30 20:28:00,
2013-07-30 15:33:00,68.6,60.0,30.01,SW,227,0.0,3.0,74,0.00,,---,0.00,VWS V14.01,2013-07-30 20:33:00,
2013-07-30 15:38:00,68.8,60.9,30.01,WSW,254,0.0,4.0,76,0.00,,---,0.00,VWS V14.01,2013-07-30 20:38:00,
2013-07-30 15:44:00,68.8,60.9,30.01,WSW,250,0.0,4.0,76,0.00,,---,0.00,VWS V14.01,2013-07-30 20:44:00,
2013-07-30 15:49:00,69.0,61.1,30.00,NNW,342,2.0,4.0,76,0.00,,---,0.00,VWS V14.01,2013-07-30 20:49:00,
2013-07-30 15:54:00,68.9,60.3,30.00,SW,221,1.0,4.0,74,0.00,,---,0.00,VWS V14.01,2013-07-30 20:54:00,
2013-07-30 15:59:00,69.1,60.8,30.00,WSW,239,2.0,4.0,75,0.00,,---,0.00,VWS V14.01,2013-07-30 20:59:00,
2013-07-30 16:04:00,69.1,60.5,30.00,West,277,2.0,2.0,74,0.00,,---,0.00,VWS V14.01,2013-07-30 21:04:00,
2013-07-30 16:09:00,68.8,60.6,30.00,SW,230,1.0,4.0,75,0.24,,---,0.24,VWS V14.01,2013-07-30 21:09:00,
2013-07-30 16:14:00,68.7,60.5,30.00,SE,128,2.0,4.0,75,0.40,,---,0.40,VWS V14.01,2013-07-30 21:14:00,
2013-07-30 16:20:00,68.7,60.8,30.00,NNE,29,1.0,4.0,76,0.40,,---,0.40,VWS V14.01,2013-07-30 21:20:00,
2013-07-30 16:25:00,68.8,60.9,30.00,WNW,288,0.0,4.0,76,0.40,,---,0.40,VWS V14.01,2013-07-30 21:25:00,
2013-07-30 16:30:00,68.8,61.3,30.00,SE,137,4.0,4.0,77,0.40,,---,0.40,VWS V14.01,2013-07-30 21:30:00,
2013-07-30 16:35:00,68.9,61.0,30.00,ENE,76,1.0,4.0,76,0.40,,---,0.40,VWS V14.01,2013-07-30 21:35:00,
2013-07-30 16:40:00,68.7,60.8,30.00,WSW,250,0.0,4.0,76,0.40,,---,0.40,VWS V14.01,2013-07-30 21:40:00,
2013-07-30 16:45:00,68.4,60.9,30.00,West,261,0.0,4.0,77,0.40,,---,0.40,VWS V14.01,2013-07-30 21:45:00,
2013-07-30 16:50:00,68.3,61.5,30.00,South,172,0.0,4.0,79,0.40,,---,0.40,VWS V14.01,2013-07-30 21:50:00,
2013-07-30 16:55:00,68.2,61.5,30.00,West,266,0.0,4.0,79,0.40,,---,0.40,VWS V14.01,2013-07-30 21:55:00,
2013-07-30 17:00:00,68.0,61.2,30.00,West,263,0.0,0.0,79,0.40,,---,0.40,VWS V14.01,2013-07-30 22:00:00,
2013-07-30 17:06:00,67.9,60.8,30.00,SSE,160,1.0,3.0,78,0.40,,---,0.40,VWS V14.01,2013-07-30 22:06:00,
2013-07-30 17:11:00,67.9,61.2,30.00,South,172,0.0,3.0,79,0.40,,---,0.40,VWS V14.01,2013-07-30 22:11:00,
2013-07-30 17:16:00,67.9,61.5,30.00,SE,140,0.0,3.0,80,0.40,,---,0.40,VWS V14.01,2013-07-30 22:16:00,
2013-07-30 17:21:00,67.8,61.4,30.00,SSE,164,0.0,3.0,80,0.40,,---,0.40,VWS V14.01,2013-07-30 22:21:00,
2013-07-30 17:27:00,67.9,61.5,30.00,SSE,164,0.0,3.0,80,0.40,,---,0.40,VWS V14.01,2013-07-30 22:27:00,
2013-07-30 17:32:00,67.9,60.8,30.00,South,175,0.0,1.0,78,0.00,,---,0.40,VWS V14.01,2013-07-30 22:32:00,
2013-07-30 17:37:00,67.9,61.5,30.00,SSW,206,0.0,1.0,80,0.00,,---,0.40,VWS V14.01,2013-07-30 22:37:00,
2013-07-30 17:42:00,68.0,61.2,30.00,SSE,159,0.0,1.0,79,0.00,,---,0.40,VWS V14.01,2013-07-30 22:42:00,
2013-07-30 17:47:00,68.1,61.3,30.00,SSW,209,0.0,1.0,79,0.00,,---,0.40,VWS V14.01,2013-07-30 22:47:00,
2013-07-30 17:52:00,68.3,61.5,30.00,SSE,165,0.0,3.0,79,0.00,,---,0.40,VWS V14.01,2013-07-30 22:52:00,
2013-07-30 17:57:00,68.3,61.9,30.00,South,169,0.0,3.0,80,0.00,,---,0.40,VWS V14.01,2013-07-30 22:57:00,
2013-07-30 18:02:00,68.4,62.0,30.00,South,169,0.0,0.0,80,0.00,,---,0.40,VWS V14.01,2013-07-30 23:02:00,
2013-07-30 18:07:00,68.2,61.8,30.00,South,176,0.0,0.0,80,0.00,,---,0.40,VWS V14.01,2013-07-30 23:07:00,
2013-07-30 18:12:00,68.0,61.6,30.00,West,272,0.0,0.0,80,0.00,,---,0.40,VWS V14.01,2013-07-30 23:12:00,
2013-07-30 18:18:00,67.8,60.7,29.99,SSE,161,0.0,0.0,78,0.00,,---,0.40,VWS V14.01,2013-07-30 23:18:00,
2013-07-30 18:23:00,67.7,60.2,29.99,SE,146,0.0,2.0,77,0.00,,---,0.40,VWS V14.01,2013-07-30 23:23:00,
2013-07-30 18:28:00,67.6,60.1,29.99,South,186,1.0,2.0,77,0.00,,---,0.40,VWS V14.01,2013-07-30 23:28:00,
2013-07-30 18:33:00,67.5,60.4,29.99,South,185,0.0,0.0,78,0.00,,---,0.40,VWS V14.01,2013-07-30 23:33:00,
2013-07-30 18:38:00,67.5,60.0,29.99,South,186,0.0,1.0,77,0.00,,---,0.40,VWS V14.01,2013-07-30 23:38:00,
2013-07-30 18:43:00,67.6,60.5,29.99,South,186,0.0,1.0,78,0.00,,---,0.40,VWS V14.01,2013-07-30 23:43:00,
2013-07-30 18:48:00,67.7,61.0,29.99,South,186,0.0,1.0,79,0.00,,---,0.40,VWS V14.01,2013-07-30 23:48:00,
2013-07-30 18:53:00,67.9,61.2,29.99,South,186,0.0,1.0,79,0.00,,---,0.40,VWS V14.01,2013-07-30 23:53:00,
2013-07-30 18:58:00,67.7,61.7,29.99,South,186,0.0,1.0,81,0.00,,---,0.40,VWS V14.01,2013-07-30 23:58:00,
2013-07-30 19:03:00,67.4,61.4,29.99,South,186,0.0,0.0,81,0.00,,---,0.40,VWS V14.01,2013-07-31 00:03:00,
2013-07-30 19:08:00,67.0,61.3,29.99,South,186,0.0,0.0,82,0.00,,---,0.40,VWS V14.01,2013-07-31 00:08:00,
2013-07-30 19:14:00,66.7,60.7,29.99,South,186,0.0,0.0,81,0.00,,---,0.40,VWS V14.01,2013-07-31 00:14:00,
2013-07-30 19:19:00,66.6,60.9,29.99,South,186,0.0,0.0,82,0.00,,---,0.40,VWS V14.01,2013-07-31 00:19:00,
2013-07-30 19:24:00,66.4,60.4,29.99,South,186,0.0,0.0,81,0.00,,---,0.40,VWS V14.01,2013-07-31 00:24:00,
2013-07-30 19:29:00,66.4,60.4,29.99,South,186,0.0,0.0,81,0.00,,---,0.40,VWS V14.01,2013-07-31 00:29:00,
2013-07-30 19:34:00,66.3,60.3,29.99,South,186,0.0,0.0,81,0.00,,---,0.40,VWS V14.01,2013-07-31 00:34:00,
2013-07-30 19:39:00,66.2,60.9,29.99,South,186,0.0,0.0,83,0.00,,---,0.40,VWS V14.01,2013-07-31 00:39:00,
2013-07-30 19:44:00,65.9,60.3,29.99,South,186,0.0,0.0,82,0.00,,---,0.40,VWS V14.01,2013-07-31 00:44:00,
2013-07-30 19:49:00,65.8,60.2,29.99,South,186,0.0,0.0,82,0.00,,---,0.40,VWS V14.01,2013-07-31 00:49:00,
2013-07-30 19:55:00,65.6,60.0,29.99,South,186,0.0,0.0,82,0.00,,---,0.40,VWS V14.01,2013-07-31 00:55:00,
2013-07-30 20:00:00,65.6,60.3,29.99,South,186,0.0,0.0,83,0.00,,---,0.40,VWS V14.01,2013-07-31 01:00:00,
2013-07-30 20:05:00,65.5,60.2,29.99,South,185,0.0,0.0,83,0.00,,---,0.40,VWS V14.01,2013-07-31 01:05:00,
2013-07-30 20:10:00,65.3,60.0,29.99,South,186,0.0,0.0,83,0.00,,---,0.40,VWS V14.01,2013-07-31 01:10:00,
2013-07-30 20:15:00,65.2,60.2,29.99,South,186,0.0,0.0,84,0.00,,---,0.40,VWS V14.01,2013-07-31 01:15:00,
2013-07-30 20:20:00,65.2,60.6,29.99,South,186,0.0,0.0,85,0.00,,---,0.40,VWS V14.01,2013-07-31 01:20:00,
2013-07-30 20:25:00,65.2,60.9,29.99,South,186,0.0,0.0,86,0.00,,---,0.40,VWS V14.01,2013-07-31 01:25:00,
2013-07-30 20:31:00,65.0,60.4,29.98,South,186,0.0,0.0,85,0.00,,---,0.40,VWS V14.01,2013-07-31 01:31:00,
2013-07-30 20:36:00,64.7,60.4,29.98,South,186,0.0,0.0,86,0.00,,---,0.40,VWS V14.01,2013-07-31 01:36:00,
2013-07-30 20:41:00,64.5,60.9,29.98,South,186,0.0,0.0,88,0.00,,---,0.40,VWS V14.01,2013-07-31 01:41:00,
2013-07-30 20:46:00,64.4,60.8,29.99,South,186,0.0,0.0,88,0.00,,---,0.40,VWS V14.01,2013-07-31 01:46:00,
2013-07-30 20:51:00,64.1,60.8,29.99,South,186,0.0,0.0,89,0.00,,---,0.40,VWS V14.01,2013-07-31 01:51:00,
2013-07-30 20:56:00,63.8,60.8,29.99,South,186,0.0,0.0,90,0.00,,---,0.40,VWS V14.01,2013-07-31 01:56:00,
2013-07-30 21:01:00,63.6,60.9,29.98,South,186,0.0,0.0,91,0.00,,---,0.40,VWS V14.01,2013-07-31 02:01:00,
2013-07-30 21:07:00,63.5,61.1,29.98,South,186,0.0,0.0,92,0.00,,---,0.40,VWS V14.01,2013-07-31 02:07:00,
2013-07-30 21:12:00,63.4,61.0,29.98,South,186,0.0,0.0,92,0.00,,---,0.40,VWS V14.01,2013-07-31 02:12:00,
2013-07-30 21:17:00,63.2,60.8,29.99,South,186,0.0,0.0,92,0.00,,---,0.40,VWS V14.01,2013-07-31 02:17:00,
2013-07-30 21:22:00,63.1,60.7,29.99,South,186,0.0,0.0,92,0.00,,---,0.40,VWS V14.01,2013-07-31 02:22:00,
2013-07-30 21:27:00,63.0,60.6,29.99,South,186,0.0,0.0,92,0.00,,---,0.40,VWS V14.01,2013-07-31 02:27:00,
2013-07-30 21:32:00,63.0,60.6,29.99,South,186,0.0,0.0,92,0.00,,---,0.40,VWS V14.01,2013-07-31 02:32:00,
2013-07-30 21:37:00,63.0,61.0,29.99,South,186,0.0,0.0,93,0.00,,---,0.40,VWS V14.01,2013-07-31 02:37:00,
2013-07-30 21:42:00,63.0,61.0,29.99,South,186,0.0,0.0,93,0.00,,---,0.40,VWS V14.01,2013-07-31 02:42:00,
2013-07-30 21:48:00,62.9,60.8,29.99,South,186,0.0,0.0,93,0.00,,---,0.40,VWS V14.01,2013-07-31 02:48:00,
2013-07-30 21:53:00,62.9,61.2,29.99,South,186,0.0,0.0,94,0.00,,---,0.40,VWS V14.01,2013-07-31 02:53:00,
2013-07-30 21:58:00,62.8,61.0,29.99,South,186,0.0,0.0,94,0.00,,---,0.40,VWS V14.01,2013-07-31 02:58:00,
2013-07-30 22:03:00,62.8,61.0,29.99,South,186,0.0,0.0,94,0.00,,---,0.40,VWS V14.01,2013-07-31 03:03:00,
2013-07-30 22:08:00,62.8,61.0,29.99,South,186,0.0,0.0,94,0.00,,---,0.40,VWS V14.01,2013-07-31 03:08:00,
2013-07-30 22:13:00,62.7,61.0,29.99,South,186,0.0,0.0,94,0.00,,---,0.40,VWS V14.01,2013-07-31 03:13:00,
2013-07-30 22:18:00,62.7,61.0,29.99,South,186,0.0,0.0,94,0.00,,---,0.40,VWS V14.01,2013-07-31 03:18:00,
2013-07-30 22:23:00,62.6,60.8,29.99,South,186,0.0,0.0,94,0.00,,---,0.40,VWS V14.01,2013-07-31 03:23:00,
2013-07-30 22:28:00,62.6,60.8,29.99,South,186,0.0,0.0,94,0.00,,---,0.40,VWS V14.01,2013-07-31 03:28:00,
2013-07-30 22:34:00,62.6,60.8,29.99,South,186,0.0,0.0,94,0.00,,---,0.40,VWS V14.01,2013-07-31 03:34:00,
2013-07-30 22:39:00,62.5,60.8,29.99,South,186,0.0,0.0,94,0.00,,---,0.40,VWS V14.01,2013-07-31 03:39:00,
2013-07-30 22:44:00,62.5,60.8,29.99,South,186,0.0,0.0,94,0.00,,---,0.40,VWS V14.01,2013-07-31 03:44:00,
2013-07-30 22:49:00,62.5,60.8,29.99,South,186,0.0,0.0,94,0.00,,---,0.40,VWS V14.01,2013-07-31 03:49:00,
2013-07-30 22:54:00,62.6,60.8,29.99,South,186,0.0,0.0,94,0.00,,---,0.40,VWS V14.01,2013-07-31 03:54:00,
2013-07-30 22:59:00,62.6,60.8,29.99,South,186,0.0,0.0,94,0.00,,---,0.40,VWS V14.01,2013-07-31 03:59:00,
2013-07-30 23:01:00,62.6,60.8,29.99,South,186,0.0,0.0,94,0.00,,---,0.40,VWS V14.01,2013-07-31 04:01:00,
2013-07-30 23:02:00,62.5,60.8,29.99,South,186,0.0,0.0,94,0.00,,---,0.40,VWS V14.01,2013-07-31 04:02:00,
2013-07-30 23:03:00,62.6,60.8,29.99,South,186,0.0,0.0,94,0.00,,---,0.40,VWS V14.01,2013-07-31 04:03:00,
2013-07-30 23:09:00,62.6,60.8,29.99,South,186,0.0,0.0,94,0.00,,---,0.40,VWS V14.01,2013-07-31 04:09:00,
2013-07-30 23:14:00,62.5,61.0,29.99,South,186,0.0,0.0,95,0.00,,---,0.40,VWS V14.01,2013-07-31 04:14:00,
2013-07-30 23:19:00,62.5,61.0,29.98,South,186,0.0,0.0,95,0.00,,---,0.40,VWS V14.01,2013-07-31 04:19:00,
2013-07-30 23:24:00,62.5,61.0,29.98,South,186,0.0,0.0,95,0.00,,---,0.40,VWS V14.01,2013-07-31 04:24:00,
2013-07-30 23:29:00,62.4,61.0,29.98,South,186,0.0,0.0,95,0.00,,---,0.40,VWS V14.01,2013-07-31 04:29:00,
2013-07-30 23:34:00,62.4,61.0,29.98,South,186,0.0,0.0,95,0.00,,---,0.40,VWS V14.01,2013-07-31 04:34:00,
2013-07-30 23:39:00,62.5,61.0,29.98,South,186,0.0,0.0,95,0.00,,---,0.40,VWS V14.01,2013-07-31 04:39:00,
2013-07-30 23:44:00,62.5,61.0,29.98,South,186,0.0,0.0,95,0.00,,---,0.40,VWS V14.01,2013-07-31 04:44:00,
2013-07-30 23:49:00,62.4,61.0,29.98,South,186,0.0,0.0,95,0.00,,---,0.40,VWS V14.01,2013-07-31 04:49:00,
2013-07-30 23:55:00,62.4,61.0,29.98,South,186,0.0,0.0,95,0.00,,---,0.40,VWS V14.01,2013-07-31 04:55:00,